This is the latest recevied weather packets stored in our database for station/object 9W3FAB-1. If no packets are shown the sender has not sent any weather packets the latest 10 day(s).
| Time | Temp. | Humidity | Pressure | Rain* | Wind** | Luminosity | Snow |
|---|---|---|---|---|---|---|---|
| 1778104066 | 27.22° C | 100% | 1006.7 hPa | - | - | - | - |
| 1778103165 | 27.78° C | 100% | 1006.9 hPa | - | - | - | - |
| 1778102264 | 26.11° C | 100% | 1006.9 hPa | - | - | - | - |
| 1778101363 | 26.67° C | 100% | 1006.8 hPa | - | - | - | - |
| 1778100462 | 27.78° C | 100% | 1006.7 hPa | - | - | - | - |
| 1778099562 | 27.22° C | 100% | 1006.8 hPa | - | - | - | - |
| 1778098661 | 26.67° C | 100% | 1006.9 hPa | - | - | - | - |
| 1778097760 | 26.67° C | 100% | 1007 hPa | - | - | - | - |
| 1778096859 | 26.67° C | 100% | 1006.9 hPa | - | - | - | - |
| 1778095958 | 26.67° C | 100% | 1006.9 hPa | - | - | - | - |
| 1778095057 | 26.67° C | 100% | 1007 hPa | - | - | - | - |
| 1778094156 | 27.22° C | 100% | 1007.2 hPa | - | - | - | - |
| 1778093256 | 27.22° C | 100% | 1007.2 hPa | - | - | - | - |
| 1778092355 | 26.67° C | 100% | 1007.5 hPa | - | - | - | - |
| 1778091454 | 27.22° C | 100% | 1007.5 hPa | - | - | - | - |
| 1778090553 | 27.22° C | 100% | 1007.5 hPa | - | - | - | - |
| 1778089652 | 27.22° C | 100% | 1007.5 hPa | - | - | - | - |
| 1778088751 | 27.78° C | 100% | 1007.7 hPa | - | - | - | - |
| 1778087850 | 27.22° C | 100% | 1008.2 hPa | - | - | - | - |
| 1778086949 | 26.67° C | 100% | 1008.4 hPa | - | - | - | - |
| 1778086048 | 27.22° C | 100% | 1008.5 hPa | - | - | - | - |
| 1778085147 | 27.22° C | 100% | 1008.6 hPa | - | - | - | - |
| 1778084246 | 27.22° C | 100% | 1008.5 hPa | - | - | - | - |
| 1778083345 | 27.78° C | 100% | 1008.2 hPa | - | - | - | - |
| 1778082445 | 28.33° C | 100% | 1008.2 hPa | - | - | - | - |
* Rain since midnight (hover to see other rain measurements)
** Current wind speed in m/s (hover to see current wind gust speed)